Location: Karner
(42.7234°N, 73.8573°W)
Time: 07:25:37
(UTC+00:00)

Daily predictions for brighter satellites

Satellite Brightness Start Highest point End
(mag) Time Altitude Azimuth Time Altitude Azimuth Time Altitude Azimuth
CZ-4B R/B 3.3 22:15:13 10° SSE 22:20:50 89° WSW 22:26:24 10° NNW
Cosmos 1656 4.4 22:19:18 10° SSE 22:24:08 32° ESE 22:29:05 10° NE
Cosmos 1300 2.9 22:22:20 10° S 22:26:00 49° E 22:29:43 10° NNE
H-2A R/B 3.7 22:24:55 10° E 22:27:59 16° ENE 22:31:04 10° NNE
SL-4 R/B 3.5 22:29:57 10° NW 22:32:37 20° N 22:35:24 10° NE
BREEZE-M R/B 4.1 22:29:52 10° WNW 22:33:08 35° N 22:38:59 10° ENE
CZ-2D R/B 4.3 22:30:11 10° ESE 22:33:15 24° ENE 22:36:20 10° NNE
Cosmos 1953 Rocket 3.6 22:30:00 10° N 22:34:21 56° E 22:38:43 10° SSE
Cosmos 2227 Rocket 2.9 22:29:48 10° N 22:34:55 33° NE 22:40:00 10° ESE
Cosmos 2058 Rocket 3.5 22:32:08 10° SSE 22:36:20 41° E 22:40:35 10° NNE
Cosmos 1346 Rocket 4.3 22:34:28 10° NNE 22:37:02 16° ENE 22:39:37 10° ESE
Atlas Centaur 2 4.3 22:31:02 10° SW 22:37:43 28° SSE 22:44:34 10° ESE
USA 305 4.4 22:35:21 10° NW 22:38:50 23° NNE 22:41:55 12° ENE
NOAA 12 4.5 22:34:57 10° S 22:40:13 73° WSW 22:45:34 10° NNW
Cosmos 1315 Rocket 4.4 22:38:58 10° ESE 22:41:16 15° E 22:43:37 10° NE
Meteor 2-16 Rocket 4.4 22:37:16 10° N 22:43:21 69° E 22:49:25 10° SSE
SAR-Lupe-4 3.6 22:40:17 10° NNE 22:43:49 59° ESE 22:47:21 10° S
ERS-2 2.5 22:41:04 10° N 22:44:41 67° WNW 22:48:18 10° SSW
USA 306 4.3 22:41:46 10° NW 22:45:18 24° NNE 22:48:03 14° ENE
Cosmos 1331 Rocket 4.4 22:40:28 10° SSW 22:45:35 65° WNW 22:50:44 10° NNE
SeaSat 1 4.2 22:45:52 12° ENE 22:47:37 14° NE 22:50:13 10° NNE
Cosmos 44 3.5 22:43:24 10° SW 22:47:51 66° NW 22:52:35 10° NNE
Cosmos 1697 Rocket 3.5 22:45:02 10° SSE 22:49:41 28° ESE 22:54:22 10° NE
Cosmos 1340 3.0 22:46:16 10° N 22:49:53 42° ENE 22:53:29 10° SSE
IRS-1C Rocket 4.1 22:44:45 10° SSE 22:49:54 58° ENE 22:55:05 10° N
Cosmos 1244 Rocket 4.5 22:46:30 10° N 22:52:41 68° E 22:58:54 10° SSE
FALCON 9 DEB 3.9 22:55:13 10° WSW 22:58:18 41° NNW 23:00:43 15° NE
NOAA 11 4.3 22:54:19 10° S 22:59:45 79° WSW 23:05:13 10° NNW
COSMO-SKYMED 1 2.5 22:56:54 10° NNE 23:01:15 72° ESE 23:05:34 10° S
SAR-Lupe-1 4.0 22:58:06 10° NNE 23:01:42 87° WNW 23:05:17 10° SSW
FALCON 9 DEB 4.1 22:59:18 10° W 23:02:17 36° NNW 23:04:31 16° NE
Cosmos 968 Rocket 3.7 22:59:59 10° N 23:05:02 47° ENE 23:09:59 10° SE
MOS 1 Rocket 4.1 23:04:01 10° NE 23:08:10 30° E 23:12:31 10° SSE
NOSS 3-3 (A) 4.1 23:06:16 10° S 23:11:42 48° ESE 23:16:45 15° NE
NOSS 3-3 (C) 4.1 23:06:21 10° S 23:11:50 47° ESE 23:16:51 15° NE
Cosmos 1980 Rocket 3.2 23:08:17 10° SSE 23:12:32 22° E 23:12:55 22° E
Okean O Rocket 3.9 23:09:30 10° SSW 23:13:13 27° W 23:16:57 10° NW
YAOGAN 1 2.8 23:09:37 10° SE 23:13:44 46° ENE 23:17:53 10° N
Cosmos 1455 2.7 23:10:59 10° SSE 23:14:25 35° E 23:16:25 20° NE
FALCON 9 DEB 4.4 23:11:43 10° W 23:14:40 32° NNW 23:16:25 19° NNE
Cosmos 2297 Rocket 2.1 23:09:16 10° NNW 23:14:58 80° ENE 23:20:38 10° SSE
Cosmos 1302 Rocket 4.4 23:11:30 10° SSW 23:16:44 68° WNW 23:22:01 10° NNE
In-Cosmos 22 Rocket 4.0 23:12:02 10° N 23:17:26 82° E 23:22:55 10° SSE
USA 215 4.4 23:13:42 16° ENE 23:17:33 28° N 23:22:52 10° NW
Lacrosse 5 3.9 23:15:28 10° NW 23:18:33 16° N 23:21:05 12° NNE
CZ-4B R/B 3.8 23:16:19 10° NNW 23:18:56 23° WNW 23:21:28 10° SW
CSL-04 Debris 4.5 23:14:30 10° SE 23:19:35 43° ENE 23:24:43 10° N
Cosmos 1812 Rocket 4.1 23:16:25 10° SSE 23:20:24 34° E 23:22:48 20° NE
ATLAS 2AS CENTAUR R/B 4.0 23:19:05 10° NNW 23:25:08 25° NNE 23:27:36 21° ENE
Cosmos 1486 Rocket 3.9 23:21:12 10° NNW 23:26:34 76° ENE 23:31:51 10° SSE
Cosmos 1939 Rocket 3.5 23:22:52 10° S 23:26:47 55° W 23:30:38 10° NNW
Aureole 3 4.1 23:24:14 10° SSW 23:27:15 39° W 23:30:05 10° N
S3M 3.9 23:22:04 10° S 23:28:05 66° E 23:34:12 10° NNE
USA 307 3.7 23:24:43 10° NW 23:28:41 35° NNE 23:29:26 33° NE
Cosmos 2360 4.5 23:23:51 10° S 23:29:15 45° ESE 23:32:32 22° NE
Cosmos 1689 Rocket 3.5 23:27:10 10° N 23:29:54 38° WNW 23:32:35 10° SW
Aureole 3 Rocket 3.9 23:26:34 10° SSW 23:30:20 54° WNW 23:35:31 10° N
Cosmos 44 Rocket 3.8 23:27:13 10° S 23:31:33 36° ESE 23:31:48 36° ESE
SL-08 ROCKET BODY 4.3 23:26:52 10° N 23:33:01 82° E 23:39:12 10° S
USA 308 3.6 23:29:32 10° NW 23:33:33 37° NNE 23:34:05 36° NE
Helios 1A Rocket 3.2 23:31:07 10° S 23:35:14 69° WSW 23:39:20 10° NNW
CZ-2C R/B 3.2 23:29:31 10° SSE 23:35:19 77° ENE 23:40:59 10° N
Milstar 3 4.2 23:29:52 10° SW 23:35:22 25° S 23:39:02 16° SE
Cosmos 1503 Rocket 4.1 23:31:17 10° N 23:36:24 52° ENE 23:38:26 33° ESE
DMSP B5D1-3 4.4 23:36:48 10° NNE 23:41:57 68° ESE 23:47:04 10° S
Cosmos 2278 4.0 23:36:55 10° S 23:42:13 42° ESE 23:42:47 40° E
Cosmos 2219 3.9 23:39:58 10° NNW 23:45:36 55° WSW 23:51:11 10° S
Meteor 2-10 Rocket 3.5 23:41:08 10° SSW 23:46:29 82° W 23:51:39 10° N
Okean-O 3.1 23:42:38 10° S 23:47:01 60° W 23:51:25 10° NNW
Cosmos 1354 Rocket 4.0 23:42:55 10° NNW 23:48:07 58° ENE 23:49:13 48° ESE
CZ-4 R/B 2.0 23:47:29 10° S 23:51:18 53° W 23:55:06 10° NNW
Cosmos 1892 3.8 23:48:46 10° NNW 23:52:30 46° W 23:56:13 10° SSW
Cosmos 1408 2.8 23:50:24 10° NNW 23:54:03 68° W 23:54:58 46° SSW
Cosmos 2082 3.6 23:48:29 10° NNW 23:54:15 76° ENE 23:56:35 37° SE
